This demonstration page uses our WeatherBlox Daily Observations layout. Learn more.

Left ArrowRight Arrow

53.62937, 11.41316

Hourly Observations for December 11, 2021

Temp ( °F °C ) Dew Point ( °F °C ) Humidity (%) Winds ( mph kmh ) Pressure ( in mb ) Visibility ( mi km ) Precip ( " mm )
12:20 am 00:20 Mostly Cloudy 34 1 32 0 93 93 VRB 2 4 29.62 1003 2 3 N/A
12:50 am 00:50 Mostly Cloudy 34 1 32 0 93 93 VRB 2 4 29.62 1003 2 3 N/A
1:20 am 01:20 Mostly Cloudy 34 1 32 0 93 93 VRB 1 2 29.65 1004 2 4 N/A
1:50 am 01:50 Cloudy 34 1 32 0 93 93 VRB 1 2 29.65 1004 2 4 N/A
2:20 am 02:20 Mostly Cloudy 34 1 32 0 93 93 VRB 3 6 29.68 1005 2 4 N/A
2:50 am 02:50 Cloudy 34 1 32 0 93 93 VRB 3 6 29.68 1005 3 5 N/A
3:20 am 03:20 Mostly Cloudy 34 1 32 0 93 93 VRB 1 2 29.68 1005 3 5 N/A
3:50 am 03:50 Cloudy 34 1 32 0 93 93 VRB 2 4 29.71 1006 2 4 N/A
4:20 am 04:20 Mostly Cloudy 34 1 32 0 93 93 VRB 1 2 29.71 1006 3 4 N/A
4:50 am 04:50 Cloudy 34 1 32 0 93 93 VRB 1 2 29.71 1006 2 4 N/A
5:20 am 05:20 Cloudy 34 1 32 0 93 93 VRB 2 4 29.74 1007 3 4 N/A
5:50 am 05:50 Cloudy 32 0 32 0 100 100 Calm 29.74 1007 2 4 N/A
6:20 am 06:20 Cloudy 32 0 32 0 100 100 Calm 29.74 1007 2 4 N/A
6:50 am 06:50 Mostly Cloudy 32 0 32 0 100 100 VRB 1 2 29.77 1008 2 4 N/A
7:20 am 07:20 Cloudy 32 0 32 0 100 100 VRB 2 4 29.77 1008 3 5 N/A
7:50 am 07:50 Mostly Clear 32 0 32 0 100 100 VRB 2 4 29.80 1009 4 6 N/A
8:20 am 08:20 Mostly Clear 34 1 32 0 93 93 S 5 7 29.80 1009 6 9 N/A
8:50 am 08:50 Mostly Sunny 32 0 30 -1 93 93 W 3 6 29.83 1010 7 11 N/A
9:20 am 09:20 Mostly Sunny 32 0 30 -1 93 93 VRB 2 4 29.83 1010 6 9 N/A
9:50 am 09:50 Mostly Sunny 36 2 32 0 87 87 VRB 3 6 29.83 1010 7 11 N/A
10:20 am 10:20 Mostly Sunny 36 2 32 0 87 87 VRB 2 4 29.86 1011 7 11 N/A
11:20 am 11:20 Mostly Cloudy 37 3 34 1 87 87 SW 3 6 29.86 1011 30 48 N/A
11:50 am 11:50 Mostly Cloudy 37 3 34 1 87 87 SW 3 6 29.86 1011 30 48 N/A
12:20 pm 12:20 Mostly Cloudy 37 3 34 1 87 87 SSW 5 7 29.89 1012 30 48 N/A
12:50 pm 12:50 Partly Cloudy 39 4 34 1 81 81 SW 6 9 29.89 1012 30 48 N/A
1:20 pm 13:20 Partly Cloudy with Light Rain 39 4 34 1 81 81 VRB 6 9 29.89 1012 30 48 N/A
1:50 pm 13:50 Partly Cloudy with Light Rain 39 4 34 1 81 81 VRB 7 11 29.92 1013 30 48 N/A
2:20 pm 14:20 Partly Cloudy with Light Rain 39 4 34 1 81 81 WSW 13 20 29.92 1013 30 48 N/A
2:50 pm 14:50 Partly Cloudy with Light Rain 39 4 34 1 81 81 SW 5 7 29.92 1013 30 48 N/A
3:20 pm 15:20 Mostly Cloudy 39 4 34 1 81 81 VRB 3 6 29.92 1013 30 48 N/A
3:50 pm 15:50 Mostly Cloudy 39 4 34 1 81 81 VRB 6 9 29.95 1014 30 48 N/A
4:20 pm 16:20 Mostly Cloudy with Light Rain 39 4 34 1 81 81 VRB 5 7 29.95 1014 30 48 N/A
4:50 pm 16:50 Mostly Cloudy with Light Rain 37 3 34 1 87 87 SSW 3 6 29.95 1014 30 48 N/A
5:20 pm 17:20 Mostly Cloudy with Light Rain 37 3 36 2 93 93 VRB 3 6 29.98 1015 30 48 N/A
5:50 pm 17:50 Cloudy 39 4 36 2 87 87 VRB 5 7 29.98 1015 30 48 N/A
6:20 pm 18:20 Mostly Cloudy 39 4 36 2 87 87 SW 5 7 30.00 1016 30 48 N/A
6:50 pm 18:50 Mostly Cloudy with Light Rain 39 4 36 2 87 87 SW 6 9 30.00 1016 30 48 N/A
7:20 pm 19:20 Partly Cloudy 37 3 36 2 93 93 SW 6 9 30.01 1016 30 48 N/A
7:50 pm 19:50 Mostly Cloudy 37 3 36 2 93 93 SW 6 9 30.01 1016 30 48 N/A
8:20 pm 20:20 Cloudy 37 3 36 2 93 93 VRB 6 9 30.03 1017 30 48 N/A
8:50 pm 20:50 Mostly Cloudy 37 3 34 1 87 87 SW 5 7 30.03 1017 30 48 N/A
9:20 pm 21:20 Mostly Cloudy 37 3 34 1 87 87 VRB 5 7 30.03 1017 30 48 N/A
9:50 pm 21:50 Cloudy 37 3 36 2 93 93 SW 5 7 30.03 1017 30 48 N/A
10:20 pm 22:20 Cloudy 37 3 36 2 93 93 WSW 6 9 30.06 1018 30 48 N/A
10:50 pm 22:50 Mostly Cloudy 37 3 36 2 93 93 SW 6 9 30.06 1018 6 9 N/A
11:50 pm 23:50 Cloudy 37 3 36 2 93 93 SW 5 7 30.09 1019 5 8 N/A

Powered by AerisWeather